Regional Weather Roundup
Issued by NWS

Home | Current Version | Previous Version | Text Only | Print | Product List | Glossary Off
Versions: 1 2 3 4 5 6 7 8 9 10 11 12 13 14 15 16 17 18 19 20 21 22 23 24 25 26 27 28 29 30 31 32 33 34 35 36 37 38 39 40 41 42 43 44 45 46 47 48 49 50

134
ASUS44 KMEG 051000
RWRTN
TENNESSEE HOURLY STATE WEATHER ROUNDUP
NATIONAL WEATHER SERVICE MEMPHIS TN
400 AM CST MON DEC 05 2016

TNZ002-004-019-021-049-052-054-088>092-051100-
WEST TENNESSEE

CITY           SKY/WX    TMP DP  RH WIND       PRES   REMARKS
MEMPHIS INTL   CLOUDY    43  40  89 NE10      30.03F
NWS MEMPHIS      N/A     42 N/A N/A MISG        N/A
JACKSON        CLOUDY    42  39  89 NE9       30.05S
DYERSBURG      CLOUDY   N/A N/A N/A NE9       30.05F
UNION CITY     CLOUDY    39  36  87 NE8       30.06S WCI  34
PARIS          CLOUDY    37  34  87 N7        30.07S WCI  32
$$

TNZ008-025-027-028-033-062-065-066-051100-
NORTH MIDDLE TENNESSEE

CITY           SKY/WX    TMP DP  RH WIND       PRES   REMARKS
NASHVILLE      CLOUDY    45  40  82 N7        30.05S
CLARKSVILLE    CLOUDY    41  35  79 N8        30.07S
SMYRNA         CLOUDY    45  43  93 N8        30.06R
CROSSVILLE     CLOUDY    44  43  96 N5        30.01F FOG
$$

TNZ061-075-076-078-094-096-097-051100-
SOUTH MIDDLE TENNESSEE

CITY           SKY/WX    TMP DP  RH WIND       PRES   REMARKS
TULLAHOMA      CLOUDY    45  45 100 N7        30.01F
WINCHESTER     CLOUDY    46  45  93 N5        30.01S
SHELBYVILLE    CLOUDY    45  45 100 N7        30.04S
$$

TNZ017-018-042-046-047-051100-
NORTHEAST TENNESSEE

CITY           SKY/WX    TMP DP  RH WIND       PRES   REMARKS
TRI CITIES     CLOUDY    46  45  96 CALM      30.03R FOG
$$

TNZ012-013-036-069-073-074-051100-
CENTRAL EAST TENNESSEE

CITY           SKY/WX    TMP DP  RH WIND       PRES   REMARKS
KNOXVILLE      DRIZZLE   46  45  96 CALM      30.02S FOG
OAK RIDGE      CLOUDY    48  45  89 CALM      30.03F
GATLINBURG     CLOUDY    45  43  93 CALM      30.02S
$$

TNZ083-085-099-051100-
SOUTHEAST TENNESSEE

CITY           SKY/WX    TMP DP  RH WIND       PRES   REMARKS
CHATTANOOGA    CLOUDY    47  44  90 CALM      30.02F
$$

SKY/WX REPORTED AS FAIR MEANS FEW OR NO CLOUDS BELOW
12 THOUSAND FEET.





USA.gov is the U.S. government's official web portal to all federal, state and local government web resources and services.